Location: Czekan�w
(50.3488°N, 18.7344°E)
Time: 11:41:51
(UTC+00:00)

H-2A R/B - Pass Details

Date: 17 February 2020
Orbit: 529 x 653 km, 98.3° (Epoch: 08 April)

Event Time Altitude Azimuth Distance (km) Brightness Sun altitude
Rises 05:14:34 0° 360° (N) 2,882 5.9 -6.9°
Reaches altitude 10° 05:17:38 10° 335° (NNW) 1,998 4.8 -6.4°
Maximum altitude 05:19:54 14° 304° (WNW) 1,749 4.3 -6.1°
Drops below altitude 10° 05:22:12 10° 272° (W) 2,024 4.5 -5.7°
Enters shadow 05:24:45 - 251° (WSW) 2,741 5.3 -5.3°
